period_start,C,m1,H,J0,J1,J2,J3,J4,J5,JA,JB,JC,JD,JJ,JK,JN,#
2014-06-28 00:04:34,0.02,0.38,0.00,20.45,26.97,29.38,9.67,40.33,1007.66,2041.81,3307.02,3223.04,3496.00,499.98,496.45,46.48,0000 0000 0000 0000 000000
2014-06-28 00:09:35,0.01,0.38,0.00,20.40,26.96,29.46,9.70,40.28,1007.76,2041.90,3307.03,3223.05,3496.01,500.40,497.14,46.52,0000 0000 0000 0000 000000
2014-06-28 00:14:36,0.00,0.38,0.00,20.39,26.95,29.49,9.73,40.33,1007.82,2041.98,3307.02,3223.08,3496.02,500.21,496.98,46.56,0000 0000 0000 0000 000000
2014-06-28 00:19:37,-0.00,0.38,0.00,20.46,26.95,29.54,9.72,40.27,1007.82,2041.97,3307.01,3223.06,3496.01,499.99,496.61,46.60,0000 0000 0000 0000 000000
2014-06-28 00:24:39,-0.00,0.38,0.00,20.43,26.94,29.60,9.64,40.22,1007.83,2041.96,3307.05,3223.14,3496.02,500.03,496.67,46.64,0000 0000 0000 0000 000000
2014-06-28 00:29:40,-0.02,0.38,0.00,20.50,26.93,29.63,9.68,40.08,1007.83,2041.99,3307.24,3223.69,3496.19,500.13,496.82,46.69,0000 0000 0000 0000 000000
2014-06-28 00:34:41,0.00,0.38,0.00,20.44,26.92,29.62,9.71,40.09,1007.83,2041.99,3307.35,3223.71,3496.16,499.75,496.39,46.73,0000 0000 0000 0000 000000
2014-06-28 00:39:42,0.00,0.38,0.00,20.44,26.92,29.63,9.72,40.03,1007.83,2041.98,3307.20,3223.67,3496.16,500.32,496.93,46.77,0000 0000 0000 0000 000000
2014-06-28 00:44:43,-0.01,0.38,0.00,20.43,26.92,29.54,9.66,40.10,1007.83,2041.99,3307.36,3223.92,3496.49,499.82,496.66,46.81,0000 0000 0000 0000 000000
2014-06-28 00:49:44,0.01,0.38,0.00,20.38,26.92,29.59,9.60,40.06,1007.83,2041.99,3307.17,3223.89,3496.34,499.92,496.73,46.85,0000 0000 0000 0000 000000
2014-06-28 00:54:45,-0.01,0.38,0.00,20.35,26.92,29.54,9.55,40.10,1007.83,2041.99,3307.38,3223.97,3496.51,499.36,496.16,46.89,0000 0000 0000 0000 000000
2014-06-28 00:59:46,-0.00,0.38,0.00,20.47,26.92,29.59,9.64,40.04,1007.83,2041.99,3307.48,3223.95,3496.65,499.61,496.21,46.94,0000 0000 0000 0000 000000
2014-06-28 01:04:47,0.01,0.38,0.00,20.39,26.92,29.56,9.65,39.98,1007.83,2041.99,3307.29,3223.94,3496.58,499.90,496.89,46.98,0000 0000 0000 0000 000000
2014-06-28 01:09:48,0.01,0.38,0.00,20.43,26.91,29.44,9.73,39.98,1007.83,2041.99,3307.07,3223.86,3496.29,499.60,496.34,47.02,0000 0000 0000 0000 000000
2014-06-28 01:14:49,-0.01,0.38,0.00,20.41,26.90,29.34,9.68,40.02,1007.83,2041.99,3307.15,3223.95,3496.67,500.10,496.95,47.06,0000 0000 0000 0000 000000
2014-06-28 01:19:50,0.00,0.38,0.00,20.35,26.90,29.27,9.71,39.98,1007.85,2041.99,3307.12,3223.94,3496.71,500.58,497.41,47.10,0000 0000 0000 0000 000000
2014-06-28 01:24:51,-0.01,0.38,0.00,20.27,26.90,29.02,9.70,39.92,1007.84,2041.99,3307.20,3223.97,3496.72,500.08,497.11,47.14,0000 0000 0000 0000 000000
2014-06-28 01:29:52,0.00,0.38,0.00,20.29,26.90,28.96,9.65,39.91,1007.84,2042.00,3307.25,3223.98,3496.90,499.86,496.91,47.19,0000 0000 0000 0000 000000
2014-06-28 01:34:53,-0.00,0.38,0.00,20.28,26.90,28.91,9.67,39.93,1007.84,2042.02,3307.58,3223.99,3496.97,500.07,497.05,47.23,0000 0000 0000 0000 000000
2014-06-28 01:39:54,0.00,0.38,0.00,20.34,26.88,28.96,9.59,39.87,1007.84,2042.02,3307.31,3223.98,3496.95,499.89,496.71,47.27,0000 0000 0000 0000 000000
2014-06-28 01:44:55,-0.00,0.38,0.00,20.29,26.87,29.20,9.65,39.99,1007.86,2042.05,3307.51,3223.99,3496.98,499.88,496.76,47.31,0000 0000 0000 0000 000000
2014-06-28 01:49:57,0.00,0.38,0.00,20.32,26.87,29.13,9.65,39.85,1007.88,2042.08,3307.56,3223.99,3496.99,499.86,496.81,47.35,0000 0000 0000 0000 000000
2014-06-28 01:54:58,-0.00,0.38,0.00,20.27,26.87,28.94,9.69,39.95,1007.89,2042.10,3307.75,3223.99,3496.98,500.16,497.09,47.39,0000 0000 0000 0000 000000
2014-06-28 01:59:59,0.00,0.38,0.00,20.19,26.86,28.85,9.68,39.98,1007.89,2042.09,3307.73,3223.99,3496.98,500.29,497.39,47.44,0000 0000 0000 0000 000000
2014-06-28 02:05:00,0.01,0.38,0.00,20.34,26.85,28.94,9.68,39.71,1008.00,2042.22,3307.82,3223.99,3496.99,499.96,497.00,47.48,0000 0000 0000 0000 000000
2014-06-28 02:10:01,-0.00,0.38,0.00,20.28,26.85,28.92,9.71,39.89,1008.10,2042.27,3307.80,3223.99,3496.99,500.12,497.17,47.52,0000 0000 0000 0000 000000
2014-06-28 02:15:03,0.01,0.38,0.00,20.34,26.85,28.96,9.75,39.85,1008.18,2042.35,3307.66,3224.00,3496.99,500.37,497.49,47.56,0000 0000 0000 0000 000000
2014-06-28 02:20:04,-0.02,0.38,0.00,20.28,26.85,28.99,9.75,40.02,1008.15,2042.21,3307.64,3224.00,3496.98,500.55,497.85,47.60,0000 0000 0000 0000 000000
2014-06-28 02:25:05,0.05,0.38,0.00,20.24,26.84,28.81,9.67,39.88,1008.19,2042.36,3307.39,3224.00,3496.99,500.17,497.37,47.64,0000 0000 0000 0000 000000
2014-06-28 02:30:06,-0.01,0.38,0.00,20.31,26.82,28.68,9.61,39.76,1008.18,2042.57,3307.75,3224.01,3496.99,499.80,496.99,47.69,0000 0000 0000 0000 000000
2014-06-28 02:35:08,-0.00,0.38,0.00,20.30,26.82,28.71,9.70,39.88,1008.13,2042.58,3307.50,3224.00,3496.98,499.89,496.98,47.73,0000 0000 0000 0000 000000
2014-06-28 02:40:09,0.03,0.38,0.00,20.27,26.82,28.72,9.76,39.67,1008.09,2042.69,3307.69,3224.00,3496.99,500.01,497.22,47.77,0000 0000 0000 0000 000000
2014-06-28 02:45:10,-0.01,0.38,0.00,20.18,26.82,28.75,9.64,39.71,1008.06,2042.78,3307.84,3224.00,3496.99,499.70,496.95,47.81,0000 0000 0000 0000 000000
2014-06-28 02:50:12,0.01,0.38,0.00,20.19,26.82,28.75,9.74,39.52,1008.25,2042.79,3307.66,3224.00,3496.99,500.38,497.52,47.85,0000 0000 0000 0000 000000
2014-06-28 02:55:13,0.01,0.38,0.00,20.21,26.82,28.71,9.67,39.56,1008.24,2042.77,3307.75,3224.01,3496.99,499.82,497.18,47.89,0000 0000 0000 0000 000000
2014-06-28 03:00:14,-0.00,0.38,0.00,20.20,26.80,28.75,9.65,39.52,1008.13,2042.93,3307.86,3224.02,3496.99,500.07,497.29,47.94,0000 0000 0000 0000 000000
2014-06-28 03:05:15,-0.00,0.38,0.00,20.16,26.80,28.80,9.71,39.52,1008.00,2042.87,3307.77,3224.01,3496.99,499.95,497.31,47.98,0000 0000 0000 0000 000000
2014-06-28 03:10:16,0.00,0.38,0.00,20.22,26.80,28.81,9.64,39.38,1007.92,2042.83,3307.71,3224.01,3496.99,500.36,497.35,48.02,0000 0000 0000 0000 000000
2014-06-28 03:15:17,0.01,0.38,0.00,20.16,26.80,28.82,9.63,39.39,1007.93,2042.93,3307.75,3224.03,3496.99,500.10,497.36,48.06,0000 0000 0000 0000 000000
2014-06-28 03:20:18,-0.00,0.38,0.00,20.10,26.80,28.82,9.69,39.42,1007.89,2042.93,3307.58,3224.02,3496.99,500.09,497.39,48.10,0000 0000 0000 0000 000000
2014-06-28 03:25:19,-0.00,0.38,0.00,20.05,26.80,28.81,9.70,39.42,1007.84,2042.94,3307.93,3224.07,3496.99,500.12,497.52,48.14,0000 0000 0000 0000 000000
2014-06-28 03:30:20,0.00,0.38,0.00,20.17,26.80,28.82,9.68,39.24,1007.87,2042.95,3307.81,3224.03,3496.99,500.23,497.45,48.19,0000 0000 0000 0000 000000
2014-06-28 03:35:21,-0.00,0.38,0.00,20.16,26.80,28.70,9.61,39.44,1007.86,2042.96,3307.72,3224.02,3496.99,499.90,497.13,48.23,0000 0000 0000 0000 000000
2014-06-28 03:40:22,-0.00,0.38,0.00,20.20,26.80,28.75,9.66,39.32,1007.85,2042.95,3307.84,3224.03,3496.99,500.21,497.43,48.27,0000 0000 0000 0000 000000
2014-06-28 03:45:22,0.00,0.38,0.00,20.18,26.80,28.80,9.72,39.49,1008.01,2042.94,3307.71,3224.02,3496.99,500.16,497.39,48.31,0000 0000 0000 0000 000000
2014-06-28 03:50:23,-0.00,0.38,0.00,20.25,26.80,28.80,9.56,39.33,1008.15,2042.95,3307.74,3224.03,3496.99,499.65,496.89,48.35,0000 0000 0000 0000 000000
2014-06-28 03:55:24,-0.00,0.38,0.00,20.22,26.80,28.78,9.68,39.69,1008.26,2042.95,3307.95,3224.06,3496.99,499.83,497.08,48.39,0000 0000 0000 0000 000000
2014-06-28 04:00:25,-0.00,0.38,0.00,20.26,26.80,28.77,9.69,39.48,1008.30,2042.97,3307.94,3224.10,3496.99,500.32,497.54,48.43,0000 0000 0000 0000 000000
2014-06-28 04:05:26,-0.00,0.38,0.00,20.28,26.80,28.76,9.60,39.41,1008.29,2042.98,3307.96,3224.16,3496.99,499.98,497.23,48.48,0000 0000 0000 0000 000000
2014-06-28 04:10:27,0.00,0.38,0.00,20.16,26.80,28.78,9.71,39.63,1008.30,2042.97,3307.94,3224.07,3496.99,500.46,497.78,48.52,0000 0000 0000 0000 000000
2014-06-28 04:15:28,0.01,0.38,0.00,20.26,26.80,28.77,9.64,39.70,1008.29,2042.97,3307.86,3224.09,3496.99,500.23,497.47,48.56,0000 0000 0000 0000 000000
2014-06-28 04:20:29,-0.00,0.38,0.00,20.16,26.80,28.77,9.75,39.73,1008.27,2042.96,3307.75,3224.04,3496.98,499.96,497.42,48.60,0000 0000 0000 0000 000000
2014-06-28 04:25:30,0.00,0.38,0.00,20.17,26.80,28.78,9.70,39.61,1008.31,2042.97,3307.48,3224.03,3496.98,499.79,497.18,48.64,0000 0000 0000 0000 000000
2014-06-28 04:30:31,-0.00,0.38,0.00,20.19,26.80,28.78,9.59,39.44,1008.31,2042.96,3307.53,3224.02,3496.98,499.73,497.08,48.68,0000 0000 0000 0000 000000
2014-06-28 04:35:33,0.01,0.38,0.00,20.28,26.80,28.79,9.77,39.29,1008.31,2042.95,3307.54,3224.02,3496.98,500.37,497.68,48.73,0000 0000 0000 0000 000000
2014-06-28 04:40:34,0.00,0.38,0.00,20.39,26.82,28.79,9.64,39.38,1008.31,2042.97,3307.25,3224.03,3496.97,500.38,497.10,48.77,0000 0000 0000 0000 000000
2014-06-28 04:45:35,0.00,0.38,0.00,20.40,26.82,28.84,9.58,39.16,1008.31,2042.97,3307.08,3224.03,3496.98,500.09,497.18,48.81,0000 0000 0000 0000 000000
2014-06-28 04:50:36,-0.00,0.38,0.00,20.48,26.82,28.86,9.61,39.33,1008.31,2042.96,3307.08,3224.01,3496.96,500.00,496.89,48.85,0000 0000 0000 0000 000000
2014-06-28 04:55:38,0.00,0.38,0.00,20.46,26.82,28.83,9.67,39.52,1008.32,2042.97,3307.02,3224.00,3496.90,500.28,497.04,48.89,0000 0000 0000 0000 000000
2014-06-28 05:00:39,0.00,0.38,0.00,20.38,26.82,28.88,9.56,39.60,1008.32,2042.94,3307.01,3224.00,3496.76,499.76,497.06,48.93,0000 0000 0000 0000 000000
2014-06-28 05:05:40,0.00,0.38,0.00,20.37,26.84,28.93,9.71,39.60,1008.32,2042.98,3307.00,3224.00,3496.55,500.44,497.51,48.97,0000 0000 0000 0000 000000
2014-06-28 05:10:41,0.00,0.38,0.00,20.41,26.85,28.92,9.67,39.49,1008.32,2042.97,3307.00,3224.00,3496.41,500.15,497.14,49.02,0000 0000 0000 0000 000000
2014-06-28 05:15:42,-0.00,0.38,0.00,20.46,26.85,28.91,9.66,39.08,1008.33,2042.94,3307.00,3223.99,3496.19,500.05,496.82,49.06,0000 0000 0000 0000 000000
2014-06-28 05:20:43,0.00,0.38,0.00,20.64,26.86,29.13,9.57,38.98,1008.32,2042.97,3307.00,3223.99,3496.10,500.16,496.82,49.10,0000 0000 0000 0000 000000
2014-06-28 05:25:44,-0.00,0.38,0.00,21.38,26.87,29.49,9.52,39.05,1008.32,2042.93,3306.99,3223.97,3496.06,499.97,495.38,49.14,0000 0000 0000 0000 000000
2014-06-28 05:30:45,0.00,0.38,0.00,21.79,26.89,29.68,9.54,39.02,1008.34,2042.90,3306.97,3223.92,3496.00,499.86,494.58,49.18,0000 0000 0000 0000 000000
2014-06-28 05:35:46,-0.01,0.38,0.00,21.55,26.91,29.69,9.57,39.06,1008.35,2042.80,3306.98,3223.80,3496.00,500.09,495.12,49.22,0000 0000 0000 0000 000000
2014-06-28 05:40:47,-0.01,0.38,0.00,21.40,26.93,29.66,9.65,38.83,1008.38,2042.76,3306.94,3223.51,3496.00,500.03,495.21,49.27,0000 0000 0000 0000 000000
2014-06-28 05:45:48,0.01,0.38,0.00,21.41,26.96,29.69,9.70,38.83,1008.50,2042.54,3306.69,3223.15,3495.98,500.63,496.12,49.31,0000 0000 0000 0000 000000
2014-06-28 05:50:49,-0.03,0.38,0.00,21.25,26.98,29.72,9.72,38.85,1008.69,2042.26,3306.25,3223.03,3495.76,500.36,496.13,49.35,0000 0000 0000 0000 000000
2014-06-28 05:55:50,-0.00,0.38,0.00,21.13,27.00,29.78,9.51,38.74,1008.73,2042.03,3306.02,3223.00,3495.15,499.64,495.65,49.39,0000 0000 0000 0000 000000
2014-06-28 06:00:52,0.00,0.38,0.00,21.19,27.02,29.83,9.57,38.66,1008.77,2042.01,3306.00,3222.97,3495.01,500.13,495.89,49.43,0000 0000 0000 0000 000000
2014-06-28 06:05:53,0.00,0.38,0.00,21.24,27.05,29.87,9.59,38.64,1008.79,2042.00,3305.98,3222.92,3495.00,500.22,496.06,49.47,0000 0000 0000 0000 000000
2014-06-28 06:10:54,0.01,0.38,0.00,21.12,27.07,29.93,9.58,38.61,1008.79,2042.00,3305.94,3222.50,3494.97,499.97,496.04,49.52,0000 0000 0000 0000 000000
2014-06-28 06:15:55,0.02,0.38,0.00,21.12,27.10,29.98,9.70,38.69,1008.79,2042.00,3305.55,3222.08,3494.78,500.23,496.25,49.56,0000 0000 0000 0000 000000
2014-06-28 06:20:56,0.01,0.38,0.00,21.01,27.12,30.03,9.75,38.83,1008.78,2041.99,3305.07,3222.01,3494.20,500.34,496.53,49.60,0000 0000 0000 0000 000000
2014-06-28 06:25:57,0.00,0.39,0.00,21.11,27.14,30.07,9.70,38.60,1008.79,2041.98,3305.02,3222.00,3494.03,500.11,496.18,49.64,0000 0000 0000 0000 000000
2014-06-28 06:30:59,-0.00,0.38,0.00,21.13,27.16,30.04,9.58,38.42,1008.80,2041.95,3305.00,3221.98,3494.00,499.85,495.80,49.68,0000 0000 0000 0000 000000
2014-06-28 06:35:59,0.00,0.39,0.00,21.17,27.18,30.03,9.68,38.50,1008.80,2041.96,3305.00,3221.97,3494.00,499.90,495.71,49.72,0000 0000 0000 0000 000000
2014-06-28 06:41:01,-0.00,0.38,0.00,21.08,27.20,30.10,9.60,38.41,1008.80,2041.90,3304.97,3221.92,3493.98,499.66,495.75,49.76,0000 0000 0000 0000 000000
2014-06-28 06:46:02,0.01,0.39,0.00,21.18,27.22,30.19,9.73,38.53,1008.80,2041.81,3304.71,3221.66,3493.90,500.73,496.68,49.81,0000 0000 0000 0000 000000
2014-06-28 06:51:03,-0.02,0.38,0.00,21.35,27.24,30.08,9.57,38.50,1008.80,2041.33,3304.21,3221.08,3493.28,499.91,495.47,49.85,0000 0000 0000 0000 000000
2014-06-28 06:56:04,-0.01,0.38,0.00,21.38,27.25,30.03,9.65,38.74,1008.81,2041.09,3304.07,3221.01,3493.10,500.03,495.52,49.89,0000 0000 0000 0000 000000
2014-06-28 07:01:05,-0.01,0.11,0.00,21.34,27.27,30.00,8.40,33.53,1008.82,2041.72,3462.85,3303.14,3596.52,441.25,435.37,0.00,0000 0000 0000 0000 000000
2014-06-28 07:06:06,-0.01,0.00,0.00,21.40,27.29,29.97,9.61,38.39,1008.83,2041.91,3517.62,3332.04,3633.60,499.89,495.46,0.04,0000 0000 0000 0000 000000
2014-06-28 07:11:07,-0.01,0.00,0.00,21.49,27.30,29.97,9.65,38.34,1008.86,2041.74,3516.71,3331.95,3632.86,500.48,495.86,0.08,0000 0000 0000 0000 000000
2014-06-28 07:16:08,-0.00,0.00,0.00,21.72,27.32,29.93,9.59,38.26,1009.24,2041.73,3516.07,3331.79,3632.15,500.12,495.31,0.12,0000 0000 0000 0000 000000
2014-06-28 07:21:09,-0.00,0.00,0.00,21.81,27.32,29.92,9.63,38.04,1009.29,2041.38,3516.00,3331.21,3632.00,500.10,495.00,0.16,0000 0000 0000 0000 000000
2014-06-28 07:26:10,0.00,0.00,0.00,21.69,27.35,29.94,9.70,37.91,1009.25,2041.27,3515.87,3331.03,3631.63,500.44,495.80,0.20,0000 0000 0000 0000 000000
2014-06-28 07:31:11,0.00,0.00,0.00,21.59,27.35,29.97,9.59,37.86,1009.27,2041.09,3515.30,3331.00,3631.04,500.27,495.72,0.25,0000 0000 0000 0000 000000
2014-06-28 07:36:12,-0.00,0.00,0.00,21.62,27.37,29.99,9.61,37.66,1009.28,2041.01,3515.01,3330.99,3630.99,499.94,495.46,0.29,0000 0000 0000 0000 000000
2014-06-28 07:41:13,0.01,0.00,0.00,21.79,27.37,29.98,9.56,37.53,1009.29,2041.02,3515.00,3330.98,3630.85,500.08,495.31,0.33,0000 0000 0000 0000 000000
2014-06-28 07:46:14,0.00,0.00,0.00,21.83,27.39,29.98,9.56,37.41,1009.29,2041.01,3514.99,3330.97,3630.34,499.99,494.94,0.37,0000 0000 0000 0000 000000
2014-06-28 07:51:15,-0.03,0.00,0.00,21.70,27.40,30.00,9.67,37.28,1009.29,2041.01,3514.94,3330.96,3630.05,500.61,495.89,0.41,0000 0000 0000 0000 000000
2014-06-28 07:56:16,0.00,0.00,0.00,21.76,27.40,30.00,9.55,37.24,1009.29,2041.00,3514.67,3330.83,3630.00,499.87,495.04,0.46,0000 0000 0000 0000 000000
2014-06-28 08:01:17,0.02,0.00,0.00,22.07,27.42,29.97,9.59,37.32,1009.29,2041.00,3514.30,3330.53,3629.98,500.19,494.97,0.50,0000 0000 0000 0000 000000
2014-06-28 08:06:18,0.01,0.00,0.00,22.19,27.42,29.97,9.55,37.50,1009.29,2041.00,3514.13,3330.54,3629.98,499.78,494.50,0.54,0000 0000 0000 0000 000000
2014-06-28 08:11:19,0.01,0.00,0.00,22.28,27.42,29.98,9.53,37.73,1009.28,2041.00,3514.01,3330.14,3629.70,499.88,494.16,0.58,0000 0000 0000 0000 000000
2014-06-28 08:16:19,0.01,0.00,0.00,22.25,27.44,29.99,9.56,37.86,1009.27,2041.00,3514.00,3330.01,3629.09,500.05,494.51,0.62,0000 0000 0000 0000 000000
2014-06-28 08:21:20,0.00,0.00,0.00,22.24,27.45,29.98,9.53,37.73,1009.28,2041.00,3514.00,3330.00,3629.02,499.99,494.31,0.66,0000 0000 0000 0000 000000
2014-06-28 08:26:21,0.00,0.00,0.00,22.33,27.45,29.99,9.60,37.79,1009.29,2041.00,3514.00,3330.00,3629.00,500.38,494.64,0.71,0000 0000 0000 0000 000000
2014-06-28 08:31:22,0.00,0.00,0.00,22.35,27.45,29.98,9.52,37.55,1009.29,2041.00,3513.97,3330.00,3628.98,499.81,493.96,0.75,0000 0000 0000 0000 000000
2014-06-28 08:36:23,0.00,0.00,0.00,22.41,27.46,29.98,9.59,37.64,1009.29,2040.98,3513.92,3329.99,3628.89,500.44,494.51,0.79,0000 0000 0000 0000 000000
2014-06-28 08:41:24,0.04,0.00,0.00,22.53,27.47,29.99,9.50,37.57,1009.30,2040.98,3513.18,3329.65,3628.14,499.73,493.89,0.83,0000 0000 0000 0000 000000
2014-06-28 08:46:25,-0.01,0.00,0.00,22.58,27.47,29.99,9.58,37.39,1009.30,2040.96,3513.11,3329.70,3628.02,500.01,493.97,0.87,0000 0000 0000 0000 000000
2014-06-28 08:51:26,0.00,0.00,0.00,22.50,27.47,30.00,9.50,37.69,1009.32,2040.97,3513.05,3329.77,3628.01,499.79,493.80,0.91,0000 0000 0000 0000 000000
2014-06-28 08:56:28,0.01,0.00,0.00,22.55,27.47,30.00,9.54,37.83,1009.34,2040.97,3513.04,3329.66,3628.00,500.06,494.00,0.96,0000 0000 0000 0000 000000
2014-06-28 09:01:29,0.01,0.00,0.00,22.62,27.49,30.00,9.49,37.93,1009.32,2040.94,3513.01,3329.22,3628.00,499.89,493.60,1.00,0000 0000 0000 0000 000000
2014-06-28 09:06:30,-0.01,0.00,0.00,22.67,27.50,29.99,9.53,37.74,1009.31,2040.83,3513.00,3329.05,3627.98,499.54,493.24,1.04,0000 0000 0000 0000 000000
2014-06-28 09:11:31,0.00,0.00,0.00,22.69,27.50,30.01,9.53,37.77,1009.31,2040.83,3513.00,3329.06,3627.98,500.18,493.72,1.08,0000 0000 0000 0000 000000
2014-06-28 09:16:33,-0.01,0.00,0.00,22.69,27.50,30.00,9.51,37.82,1009.30,2040.80,3513.00,3329.06,3627.98,499.79,493.19,1.12,0000 0000 0000 0000 000000
2014-06-28 09:21:34,-0.02,0.00,0.00,22.71,27.50,30.00,9.55,37.95,1009.29,2040.72,3512.98,3329.01,3627.93,499.91,493.47,1.17,0000 0000 0000 0000 000000
2014-06-28 09:26:35,-0.01,0.00,0.00,22.69,27.50,30.00,9.56,37.80,1009.30,2040.59,3512.98,3329.01,3627.74,500.30,494.02,1.21,0000 0000 0000 0000 000000
2014-06-28 09:31:37,-0.03,0.00,0.00,22.71,27.50,29.99,9.52,37.71,1009.30,2040.20,3512.87,3329.00,3627.15,499.88,493.53,1.25,0000 0000 0000 0000 000000
2014-06-28 09:36:38,0.01,0.00,0.00,22.70,27.50,30.00,9.57,37.70,1009.30,2040.18,3512.59,3329.00,3627.04,500.20,493.87,1.29,0000 0000 0000 0000 000000
2014-06-28 09:41:39,-0.01,0.00,0.00,22.70,27.50,29.99,9.54,37.73,1009.29,2040.13,3512.72,3328.99,3627.02,499.92,493.50,1.33,0000 0000 0000 0000 000000
2014-06-28 09:46:40,0.00,0.00,0.00,22.70,27.50,29.99,9.49,37.76,1009.30,2040.20,3512.85,3328.99,3627.05,499.84,493.50,1.38,0000 0000 0000 0000 000000
2014-06-28 09:51:41,0.01,0.00,0.00,22.72,27.50,30.00,9.43,37.47,1009.30,2040.17,3512.76,3328.99,3627.01,499.52,493.11,1.42,0000 0000 0000 0000 000000
2014-06-28 09:56:42,0.00,0.00,0.00,22.72,27.50,30.00,9.49,37.68,1009.32,2040.28,3512.68,3328.99,3627.03,499.89,493.55,1.46,0000 0000 0000 0000 000000
2014-06-28 10:01:43,-0.00,0.00,0.00,22.75,27.49,30.00,9.54,37.88,1009.35,2040.20,3512.41,3328.99,3627.01,500.19,493.66,1.50,0000 0000 0000 0000 000000
2014-06-28 10:06:45,0.03,0.00,0.00,22.76,27.47,29.99,9.47,37.83,1009.53,2040.38,3512.58,3329.00,3627.03,499.68,493.34,1.54,0000 0000 0000 0000 000000
2014-06-28 10:11:46,-0.01,0.00,0.00,22.79,27.47,29.99,9.47,37.67,1009.65,2040.33,3512.55,3329.00,3627.01,500.07,493.60,1.58,0000 0000 0000 0000 000000
2014-06-28 10:16:47,-0.00,0.00,0.00,22.81,27.47,29.98,9.53,37.57,1009.63,2040.33,3512.43,3329.00,3627.01,500.36,493.97,1.63,0000 0000 0000 0000 000000
2014-06-28 10:21:48,0.02,0.00,0.00,22.83,27.47,29.99,9.44,37.85,1009.54,2040.51,3512.57,3329.00,3627.02,500.04,493.65,1.67,0000 0000 0000 0000 000000
2014-06-28 10:26:49,0.01,0.00,0.00,22.82,27.47,29.97,9.60,37.60,1009.61,2040.61,3512.61,3329.00,3627.03,499.93,493.57,1.71,0000 0000 0000 0000 000000
2014-06-28 10:31:50,0.00,0.00,0.00,22.82,27.46,29.99,9.53,37.49,1009.70,2040.68,3512.62,3329.01,3627.01,500.38,494.05,1.75,0000 0000 0000 0000 000000
2014-06-28 10:36:52,0.02,0.00,0.00,22.83,27.45,29.99,9.51,37.25,1009.70,2040.75,3512.47,3329.02,3627.01,500.03,493.51,1.79,0000 0000 0000 0000 000000
2014-06-28 10:41:53,0.00,0.00,0.00,22.85,27.45,30.01,9.56,37.36,1009.70,2040.82,3512.71,3329.04,3627.01,500.05,493.58,1.84,0000 0000 0000 0000 000000
2014-06-28 10:46:54,-0.00,0.00,0.00,22.84,27.45,30.02,9.56,37.49,1009.70,2040.86,3512.66,3329.04,3627.03,499.93,493.33,1.88,0000 0000 0000 0000 000000
2014-06-28 10:51:55,0.01,0.00,0.00,22.80,27.45,30.01,9.57,37.63,1009.58,2040.91,3512.55,3329.04,3627.02,500.30,493.96,1.92,0000 0000 0000 0000 000000
2014-06-28 10:56:56,0.01,0.00,0.00,22.81,27.43,30.00,9.56,37.47,1009.60,2040.95,3512.54,3329.06,3627.04,500.05,493.49,1.96,0000 0000 0000 0000 000000
2014-06-28 11:01:57,0.00,0.00,0.00,22.83,27.42,30.00,9.53,37.49,1009.55,2040.95,3512.17,3329.05,3627.01,500.28,493.83,2.00,0000 0000 0000 0000 000000
2014-06-28 11:06:58,0.38,0.01,0.00,22.85,27.42,29.98,9.50,37.28,1009.48,2040.88,3506.14,3325.41,3622.75,499.80,493.31,2.04,0000 0000 0000 0000 000000
2014-06-28 11:11:59,0.02,0.02,0.00,22.84,27.42,30.01,9.53,37.17,1009.54,2040.88,3503.85,3323.99,3621.02,499.95,493.48,2.09,0000 0000 0000 0000 000000
2014-06-28 11:17:01,-0.00,0.02,0.00,22.86,27.41,29.98,9.55,37.09,1009.55,2040.93,3503.87,3323.98,3621.04,499.89,493.25,2.13,0000 0000 0000 0000 000000
2014-06-28 11:22:02,0.00,0.02,0.00,22.84,27.40,29.95,9.53,37.03,1009.69,2040.94,3503.76,3323.98,3621.02,500.05,493.70,2.17,0000 0000 0000 0000 000000
2014-06-28 11:27:03,-0.00,0.02,0.00,22.87,27.40,29.92,9.54,37.08,1009.76,2040.88,3503.61,3323.97,3621.01,499.81,493.45,2.21,0000 0000 0000 0000 000000
2014-06-28 11:32:05,0.00,0.02,0.00,22.88,27.40,29.94,9.53,37.16,1009.77,2040.93,3503.41,3323.98,3621.01,500.50,493.97,2.25,0000 0000 0000 0000 000000
2014-06-28 11:37:06,-0.00,0.02,0.00,22.84,27.39,29.97,9.49,37.48,1009.77,2040.97,3503.54,3323.99,3621.02,499.75,493.39,2.30,0000 0000 0000 0000 000000
2014-06-28 11:42:07,0.01,0.02,0.00,22.84,27.38,29.93,9.52,37.34,1009.77,2040.98,3503.36,3323.99,3621.05,500.19,493.82,2.34,0000 0000 0000 0000 000000
2014-06-28 11:47:08,0.01,0.02,0.00,22.84,27.37,29.94,9.52,37.27,1009.78,2040.98,3503.09,3323.97,3621.02,500.30,493.88,2.38,0000 0000 0000 0000 000000
2014-06-28 11:52:09,0.00,0.02,0.00,22.86,27.37,29.93,9.48,37.04,1009.77,2040.98,3503.04,3323.99,3621.01,500.17,493.74,2.42,0000 0000 0000 0000 000000
2014-06-28 11:57:10,0.00,0.02,0.00,22.86,27.36,29.96,9.50,36.98,1009.78,2040.99,3503.05,3323.99,3621.02,499.91,493.62,2.46,0000 0000 0000 0000 000000
2014-06-28 12:02:11,-0.00,0.02,0.00,22.89,27.35,29.92,9.47,37.04,1009.78,2040.98,3503.08,3323.99,3621.02,500.14,493.72,2.50,0000 0000 0000 0000 000000
2014-06-28 12:07:12,0.00,0.02,0.00,22.87,27.35,29.94,9.55,37.13,1009.76,2040.99,3503.05,3323.98,3621.01,499.48,493.19,2.55,0000 0000 0000 0000 000000
2014-06-28 12:12:13,0.00,0.02,0.00,22.86,27.35,29.92,9.47,37.33,1009.74,2040.98,3503.03,3323.98,3621.00,500.10,493.74,2.59,0000 0000 0000 0000 000000
2014-06-28 12:17:14,0.00,0.02,0.00,22.89,27.33,29.93,9.53,37.28,1009.68,2040.99,3503.07,3323.99,3621.00,499.60,493.14,2.63,0000 0000 0000 0000 000000
2014-06-28 12:22:15,-0.00,0.02,0.00,22.87,27.32,29.92,9.53,37.32,1009.64,2040.99,3503.19,3323.99,3621.05,500.27,493.75,2.67,0000 0000 0000 0000 000000
2014-06-28 12:27:16,-0.01,0.02,0.00,22.89,27.32,29.94,9.52,37.15,1009.59,2040.99,3503.46,3324.00,3621.17,500.25,493.71,2.71,0000 0000 0000 0000 000000
2014-06-28 12:32:17,0.01,0.02,0.00,22.88,27.30,29.95,9.53,37.64,1009.44,2040.99,3503.35,3324.00,3621.18,499.88,493.27,2.76,0000 0000 0000 0000 000000
2014-06-28 12:37:18,-0.01,0.02,0.00,22.88,27.30,29.91,9.49,37.86,1009.33,2040.99,3503.30,3324.00,3621.46,499.84,493.15,2.80,0000 0000 0000 0000 000000
2014-06-28 12:42:19,-0.01,0.02,0.00,22.91,27.28,29.90,9.55,37.92,1009.32,2040.99,3503.43,3324.00,3621.78,500.06,493.43,2.84,0000 0000 0000 0000 000000
2014-06-28 12:47:20,-0.01,0.02,0.00,22.89,27.27,29.89,9.58,37.99,1009.38,2041.00,3503.62,3324.04,3621.88,500.08,493.63,2.88,0000 0000 0000 0000 000000
2014-06-28 12:52:21,0.01,0.02,0.00,22.91,27.27,29.89,9.47,38.00,1009.47,2041.00,3503.66,3324.03,3621.78,499.99,493.47,2.92,0000 0000 0000 0000 000000
2014-06-28 12:57:22,-0.01,0.02,0.00,22.88,27.25,29.86,9.44,37.82,1009.47,2041.01,3503.74,3324.05,3621.84,499.81,493.15,2.96,0000 0000 0000 0000 000000
2014-06-28 13:02:23,-0.00,0.02,0.00,22.88,27.25,29.84,9.53,37.86,1009.58,2041.00,3503.96,3324.13,3621.93,499.92,493.37,3.01,0000 0000 0000 0000 000000